Flag for U.S.A. Weather past 2 weeks in Austin, Texas, U.S.A.

Now
68 °F

Passing clouds.


Feels Like: 68 °F
Forecast: 63 / 82 °F
Wind: 7 mph from South

Location: Camp Mabry / Austin City


UV Index: 5 (Moderate)

Visibility: 10 mi


Pressure: 30.05 "Hg

Humidity: 65%

Dew point: 56 °F

Location of AustinLocation

Historic Weather in Austin

°F

Austin temperature yesterday

Maximum temperature yesterday: 74 °F (at 12:58 PM)
Minimum temperature yesterday: 61 °F (at 6:51 AM)
Average temperature yesterday: 68 °F

Past Weeks' High & Low Weather Summary

 TemperatureHumidityPressure
High86 °F (Apr 10, 2:51 PM)96% (Apr 18, 1:51 AM)30.37 "Hg (Apr 18, 1:51 AM)
Low40 °F (Apr 15, 6:51 AM)18% (Apr 8, 2:51 PM)29.62 "Hg (Apr 13, 4:51 PM)
Average64 °F65%30.02 "Hg
* Reported Apr 5 10:51 PM — Apr 20 10:51 PM, Austin, Weather by CustomWeather, © 2014

Note: Actual official high and low records may vary slightly from our data, if they occured in-between our weather recording intervals... More about our weather records

Advertising

Historic Weather Conditions — Data for Previous 24 hours

 ConditionsComfort  
Time TempWeatherWind HumidityBarometerVisibility
10:51 PM
Apr 20
69 °FPassing clouds.6 mph63%30.06 "Hg10 mi
9:51 PM71 °FClear.9 mph57%30.04 "Hg10 mi
8:51 PM72 °FOvercast.9 mph57%30.02 "Hg10 mi
7:51 PM73 °FPartly sunny.8 mph57%30.01 "Hg10 mi
6:51 PM74 °FOvercast.6 mph60%30.01 "Hg10 mi
5:51 PM73 °FOvercast.7 mph64%30.02 "Hg10 mi
4:51 PM72 °FMostly cloudy.5 mph66%30.03 "Hg10 mi
3:51 PM74 °FOvercast.7 mph62%30.05 "Hg10 mi
2:51 PM73 °FOvercast.10 mph66%30.07 "Hg10 mi
1:51 PM74 °FMostly cloudy.9 mph67%30.09 "Hg10 mi
12:58 PM74 °FBroken clouds.10 mph67%30.13 "Hg10 mi
11:51 AM70 °FMostly cloudy.8 mph76%30.14 "Hg10 mi
11:04 AM69 °FOvercast.7 mph76%30.15 "Hg10 mi
10:51 AM68 °FOvercast.9 mph78%30.13 "Hg10 mi
9:51 AM66 °FOvercast.8 mph81%30.13 "Hg9 mi
8:51 AM64 °FFog.5 mph87%30.13 "Hg5 mi
7:59 AM62 °FFog.5 mph93%30.15 "Hg3 mi
6:51 AM61 °FFog.5 mph93%30.10 "Hg3 mi
5:51 AM62 °FFog.3 mph90%30.10 "Hg5 mi
5:00 AM63 °FLow clouds.3 mph84%30.13 "Hg8 mi
4:00 AM63 °FMostly cloudy.3 mph81%30.13 "Hg10 mi
2:51 AM63 °FPassing clouds.3 mph81%30.10 "Hg10 mi
1:51 AM63 °FClear.5 mph81%30.10 "Hg10 mi
12:51 AM65 °FClear.5 mph73%30.10 "Hg10 mi
Weather by CustomWeather, © 2014

See weather overview